This is the latest recevied weather packets stored in our database for station/object N9DMT-13. If no packets are shown the sender has not sent any weather packets the latest 10 day(s).
| Time | Temp. | Humidity | Pressure | Rain* | Wind** | Luminosity | Snow |
|---|---|---|---|---|---|---|---|
| 1778177157 | 15° C | 39% | 978.6 hPa | 0 mm | - | - | - |
| 1778176856 | 14.44° C | 37% | 978.6 hPa | 0 mm | - | - | - |
| 1778176555 | 14.44° C | 40% | 978.8 hPa | 0 mm | - | - | - |
| 1778176254 | 14.44° C | 37% | 978.8 hPa | 0 mm | - | - | - |
| 1778175953 | 13.89° C | 39% | 978.8 hPa | 0 mm | - | - | - |
| 1778175652 | 14.44° C | 38% | 979 hPa | 0 mm | - | - | - |
| 1778175351 | 13.33° C | 40% | 979.1 hPa | 0 mm | - | - | - |
| 1778175050 | 13.33° C | 39% | 979.1 hPa | 0 mm | - | - | - |
| 1778174750 | 13.33° C | 38% | 979.2 hPa | 0 mm | - | - | - |
| 1778174449 | 13.33° C | 41% | 979.2 hPa | 0 mm | - | - | - |
| 1778174148 | 13.33° C | 43% | 979.3 hPa | 0 mm | - | - | - |
| 1778173847 | 13.33° C | 40% | 979.4 hPa | 0 mm | - | - | - |
| 1778173545 | 13.33° C | 37% | 979.5 hPa | 0 mm | - | - | - |
| 1778173245 | 13.33° C | 41% | 979.5 hPa | 0 mm | - | - | - |
| 1778172944 | 12.78° C | 39% | 979.4 hPa | 0 mm | - | - | - |
| 1778172643 | 13.33° C | 40% | 979.5 hPa | 0 mm | - | - | - |
| 1778172342 | 12.78° C | 41% | 979.6 hPa | 0 mm | - | - | - |
| 1778172042 | 12.78° C | 40% | 979.6 hPa | 0 mm | - | - | - |
| 1778171741 | 12.78° C | 40% | 979.5 hPa | 0 mm | - | - | - |
| 1778171440 | 13.33° C | 39% | 979.9 hPa | 0 mm | - | - | - |
| 1778171139 | 12.78° C | 45% | 980 hPa | 0 mm | - | - | - |
| 1778170839 | 12.22° C | 41% | 979.8 hPa | 0 mm | - | - | - |
| 1778170538 | 12.22° C | 42% | 980 hPa | 0 mm | - | - | - |
| 1778170236 | 11.67° C | 43% | 979.9 hPa | 0 mm | - | - | - |
| 1778169936 | 12.78° C | 39% | 980 hPa | 0 mm | - | - | - |
* Rain latest hour (hover to see other rain measurements)
** Current wind speed in m/s (hover to see current wind gust speed)